Volver al catálogo

OPS 1427

OV3-4

ActivoMilitarUNKNOWN
NORAD 2201·PAYLOAD·🇺🇸 United States

Lanzado Jun 10, 1966 desde Wallops Flight Facility

Loading…

Próximos Pases (próximas 24 horas)

TLE

ActualizadoSource: Space-Track

Época: Sep 13, 2026, 11:08 UTC

1 02201U 66052A   26256.46400403  .00000229  00000-0  37360-3 0  9991
2 02201  40.8915  61.8740 2233415 342.0774  11.1999 10.10115984206241

Sigue OPS 1427 en tiempo real con AllMySat

Download on the App Store